• In Deutschland
  • Länderverzeichnis
  • Für 7 Tage
  • Wassertemperatur
  • Satellitenkarten
  • Wetterkarte
  • Widgets
  • user-avatar
    Anmelden

    Stündliche Wetter Gaborone

    Heute, 16 November, Freitag

    Zeit Temperatur Niederschläge Wind Luftdruck Luftfeuchtigkeit
    00:00 +29°C° 0 mm 3 m/S 678 mmHg 24%
    01:00 +28°C° 0 mm 3 m/S 678 mmHg 23%
    02:00 +27°C° 0 mm 2 m/S 678 mmHg 26%
    03:00 +26°C° 0 mm 2 m/S 678 mmHg 27%
    04:00 +26°C° 0 mm 2 m/S 678 mmHg 28%
    05:00 +25°C° 0 mm 2 m/S 678 mmHg 30%
    06:00 +26°C° 0 mm 3 m/S 678 mmHg 29%
    07:00 +28°C° 0 mm 3 m/S 679 mmHg 28%
    08:00 +29°C° 0 mm 4 m/S 680 mmHg 27%
    09:00 +32°C° 0 mm 4 m/S 680 mmHg 24%
    10:00 +34°C° 0 mm 3 m/S 680 mmHg 21%
    11:00 +36°C° 0 mm 3 m/S 680 mmHg 17%
    12:00 +37°C° 0 mm 3 m/S 680 mmHg 15%
    13:00 +38°C° 0 mm 3 m/S 680 mmHg 13%
    14:00 +40°C° 0 mm 3 m/S 679 mmHg 11%
    15:00 +40°C° 0 mm 3 m/S 679 mmHg 11%
    16:00 +40°C° 0 mm 3 m/S 678 mmHg 11%
    17:00 +39°C° 0 mm 3 m/S 678 mmHg 10%
    18:00 +38°C° 0 mm 3 m/S 678 mmHg 12%
    19:00 +36°C° 0 mm 3 m/S 678 mmHg 14%
    20:00 +34°C° 0 mm 2 m/S 678 mmHg 15%
    21:00 +32°C° 0 mm 2 m/S 678 mmHg 17%
    22:00 +31°C° 0 mm 3 m/S 678 mmHg 19%
    23:00 +30°C° 0 mm 3 m/S 679 mmHg 20%

    Morgen, 17 November, Samstag

    Zeit Temperatur Niederschläge Wind Luftdruck Luftfeuchtigkeit
    00:00 +29°C° 0 mm 3 m/S 679 mmHg 22%
    01:00 +28°C° 0 mm 2 m/S 678 mmHg 24%
    02:00 +27°C° 0 mm 2 m/S 678 mmHg 26%
    03:00 +27°C° 0 mm 2 m/S 678 mmHg 28%
    04:00 +26°C° 0 mm 2 m/S 678 mmHg 30%
    05:00 +25°C° 0 mm 2 m/S 678 mmHg 32%
    06:00 +27°C° 0 mm 2 m/S 679 mmHg 31%
    07:00 +28°C° 0 mm 3 m/S 679 mmHg 29%
    08:00 +30°C° 0 mm 4 m/S 680 mmHg 28%
    09:00 +33°C° 0 mm 3 m/S 680 mmHg 25%
    10:00 +34°C° 0 mm 3 m/S 680 mmHg 21%
    11:00 +36°C° 0 mm 3 m/S 680 mmHg 18%
    12:00 +38°C° 0 mm 2 m/S 679 mmHg 16%
    13:00 +39°C° 0 mm 2 m/S 679 mmHg 14%
    14:00 +40°C° 0 mm 2 m/S 678 mmHg 12%
    15:00 +40°C° 0 mm 2 m/S 678 mmHg 12%
    16:00 +40°C° 0 mm 2 m/S 677 mmHg 12%
    17:00 +39°C° 0 mm 2 m/S 677 mmHg 12%
    18:00 +38°C° 0 mm 2 m/S 677 mmHg 14%
    19:00 +35°C° 0 mm 1 m/S 677 mmHg 15%
    20:00 +33°C° 0 mm 1 m/S 677 mmHg 17%
    21:00 +32°C° 0.1 mm 2 m/S 677 mmHg 18%
    22:00 +32°C° 0.1 mm 2 m/S 677 mmHg 20%
    23:00 +31°C° 0.1 mm 3 m/S 678 mmHg 22%

    übermorgen, 18 November, Sonntag

    Zeit Temperatur Niederschläge Wind Luftdruck Luftfeuchtigkeit
    00:00 +30°C° 0 mm 3 m/S 677 mmHg 24%
    01:00 +30°C° 0 mm 3 m/S 677 mmHg 27%
    02:00 +29°C° 0 mm 3 m/S 676 mmHg 30%
    03:00 +29°C° 0 mm 3 m/S 677 mmHg 30%
    04:00 +28°C° 0 mm 3 m/S 677 mmHg 31%
    05:00 +28°C° 0 mm 3 m/S 677 mmHg 32%
    06:00 +29°C° 0 mm 3 m/S 677 mmHg 29%
    07:00 +30°C° 0 mm 4 m/S 678 mmHg 26%
    08:00 +33°C° 0 mm 5 m/S 679 mmHg 23%
    09:00 +35°C° 0 mm 5 m/S 679 mmHg 20%
    10:00 +36°C° 0 mm 5 m/S 679 mmHg 18%
    11:00 +39°C° 0 mm 5 m/S 680 mmHg 16%
    12:00 +40°C° 0 mm 4 m/S 679 mmHg 15%
    13:00 +41°C° 0 mm 4 m/S 678 mmHg 14%
    14:00 +42°C° 0 mm 3 m/S 677 mmHg 12%
    15:00 +42°C° 0 mm 3 m/S 677 mmHg 12%
    16:00 +40°C° 0 mm 3 m/S 676 mmHg 12%
    17:00 +40°C° 0 mm 3 m/S 676 mmHg 11%
    18:00 +38°C° 0 mm 3 m/S 676 mmHg 15%
    19:00 +36°C° 0 mm 4 m/S 676 mmHg 18%
    20:00 +34°C° 0 mm 5 m/S 677 mmHg 22%
    21:00 +33°C° 0 mm 5 m/S 677 mmHg 25%
    22:00 +32°C° 0 mm 6 m/S 677 mmHg 29%
    23:00 +30°C° 0 mm 6 m/S 678 mmHg 32%

    19 November, Montag

    Zeit Temperatur Niederschläge Wind Luftdruck Luftfeuchtigkeit
    00:00 +29°C° 0 mm 6 m/S 677 mmHg 34%
    01:00 +29°C° 0 mm 6 m/S 677 mmHg 35%
    02:00 +29°C° 0 mm 5 m/S 677 mmHg 37%
    03:00 +28°C° 0 mm 5 m/S 677 mmHg 40%
    04:00 +27°C° 0 mm 5 m/S 677 mmHg 42%
    05:00 +26°C° 0 mm 5 m/S 677 mmHg 45%
    06:00 +27°C° 0 mm 6 m/S 677 mmHg 45%
    07:00 +28°C° 0 mm 7 m/S 678 mmHg 45%
    08:00 +28°C° 0 mm 8 m/S 679 mmHg 44%
    09:00 +31°C° 0 mm 8 m/S 679 mmHg 40%
    10:00 +33°C° 0 mm 8 m/S 679 mmHg 36%
    11:00 +34°C° 0 mm 8 m/S 679 mmHg 32%
    12:00 +37°C° 0 mm 8 m/S 678 mmHg 28%
    13:00 +38°C° 0 mm 7 m/S 678 mmHg 25%
    14:00 +40°C° 0 mm 7 m/S 677 mmHg 21%
    15:00 +39°C° 0.1 mm 7 m/S 676 mmHg 21%
    16:00 +39°C° 0.1 mm 6 m/S 675 mmHg 22%
    17:00 +39°C° 0.1 mm 6 m/S 675 mmHg 22%
    18:00 +35°C° 2.1 mm 7 m/S 675 mmHg 31%
    19:00 +32°C° 2.1 mm 7 m/S 675 mmHg 40%
    20:00 +28°C° 2.1 mm 8 m/S 674 mmHg 49%
    21:00 +28°C° 0.1 mm 7 m/S 675 mmHg 47%
    22:00 +29°C° 0.1 mm 6 m/S 675 mmHg 45%
    23:00 +29°C° 0.1 mm 6 m/S 675 mmHg 43%

    20 November, Dienstag

    Zeit Temperatur Niederschläge Wind Luftdruck Luftfeuchtigkeit
    00:00 +28°C° 0 mm 5 m/S 675 mmHg 43%
    01:00 +28°C° 0 mm 5 m/S 674 mmHg 43%
    02:00 +27°C° 0 mm 5 m/S 674 mmHg 43%
    03:00 +27°C° 0.5 mm 4 m/S 674 mmHg 47%
    04:00 +26°C° 0.5 mm 3 m/S 674 mmHg 52%
    05:00 +25°C° 0.5 mm 2 m/S 674 mmHg 56%
    06:00 +26°C° 0.2 mm 4 m/S 675 mmHg 53%
    07:00 +27°C° 0.2 mm 5 m/S 675 mmHg 51%
    08:00 +27°C° 0.2 mm 7 m/S 676 mmHg 48%
    09:00 +30°C° 0 mm 7 m/S 676 mmHg 42%
    10:00 +33°C° 0 mm 7 m/S 676 mmHg 37%
    11:00 +35°C° 0 mm 7 m/S 676 mmHg 31%
    12:00 +38°C° 0 mm 7 m/S 675 mmHg 26%
    13:00 +40°C° 0 mm 7 m/S 674 mmHg 21%
    14:00 +41°C° 0 mm 7 m/S 674 mmHg 16%
    15:00 +39°C° 0.6 mm 6 m/S 673 mmHg 21%
    16:00 +36°C° 0.6 mm 5 m/S 672 mmHg 26%
    17:00 +33°C° 0.6 mm 5 m/S 671 mmHg 31%
    18:00 +32°C° 0.2 mm 4 m/S 671 mmHg 33%
    19:00 +31°C° 0.2 mm 3 m/S 672 mmHg 35%
    20:00 +30°C° 0.2 mm 3 m/S 672 mmHg 37%
    21:00 +29°C° 0 mm 2 m/S 673 mmHg 35%
    22:00 +29°C° 0 mm 2 m/S 673 mmHg 33%
    23:00 +28°C° 0 mm 2 m/S 673 mmHg 31%

    21 November, Mittwoch

    Zeit Temperatur Niederschläge Wind Luftdruck Luftfeuchtigkeit
    00:00 +27°C° 0 mm 2 m/S 673 mmHg 30%
    01:00 +27°C° 0 mm 1 m/S 673 mmHg 28%
    02:00 +26°C° 0 mm 1 m/S 673 mmHg 27%
    03:00 +25°C° 0 mm 1 m/S 673 mmHg 27%
    04:00 +25°C° 0 mm 1 m/S 673 mmHg 26%
    05:00 +24°C° 0 mm 2 m/S 673 mmHg 26%
    06:00 +26°C° 0 mm 2 m/S 674 mmHg 23%
    07:00 +28°C° 0 mm 2 m/S 675 mmHg 19%
    08:00 +30°C° 0 mm 3 m/S 676 mmHg 16%
    09:00 +31°C° 0 mm 2 m/S 676 mmHg 14%
    10:00 +34°C° 0 mm 2 m/S 676 mmHg 11%
    11:00 +35°C° 0 mm 1 m/S 676 mmHg 9%
    12:00 +37°C° 0 mm 2 m/S 675 mmHg 9%
    13:00 +38°C° 0 mm 3 m/S 675 mmHg 8%
    14:00 +38°C° 0 mm 3 m/S 674 mmHg 8%
    15:00 +38°C° 0 mm 4 m/S 674 mmHg 8%
    16:00 +38°C° 0 mm 4 m/S 673 mmHg 9%
    17:00 +38°C° 0 mm 4 m/S 673 mmHg 9%
    18:00 +37°C° 0 mm 4 m/S 673 mmHg 11%
    19:00 +35°C° 0 mm 3 m/S 673 mmHg 13%
    20:00 +32°C° 0 mm 2 m/S 674 mmHg 15%
    21:00 +31°C° 0 mm 2 m/S 674 mmHg 16%
    22:00 +30°C° 0 mm 2 m/S 674 mmHg 16%
    23:00 +29°C° 0 mm 2 m/S 674 mmHg 17%
    Mehr zeigen